Location: Chuathbaluk
(61.5726°N, 159.2454°W)
Time: 07:31:05
(UTC+00:00)

NUDT-PHONESAT - Pass Details

Date: 22 January 2021
Orbit: 479 x 498 km, 97.4° (Epoch: 08 March)

Event Time Altitude Azimuth Distance (km) Brightness Sun altitude
Rises 17:35:54 0° 17° (NNE) 2,613 ? -11.6°
Reaches altitude 10° 17:38:00 10° 20° (NNE) 1,724 ? -11.4°
Maximum altitude 17:41:43 70° 105° (ESE) 540 ? -11.0°
Drops below altitude 10° 17:45:23 10° 189° (S) 1,709 ? -10.6°
Sets 17:47:28 0° 192° (SSW) 2,586 ? -10.4°
